KO4RJX-10 Weather Reports


Display with metric or nautical units.
time (UTC)temp
F
wind
direction
speed
MPH
gust
MPH
rain 1hr
in
rain 24hr
in
rain mn
in
humidity
%
barometer
mb
20260508054307 52 6 1.0 2.0 0.00 0.00 0.00 100 1006.4
20260508053627 52 321 1.0 1.0 0.00 0.00 0.00 100 1006.4
20260508052946 52 332 0.0 2.0 0.00 0.00 0.00 100 1006.4
20260508052307 52 330 1.0 3.0 0.00 0.00 0.00 99 1006.4
20260508051626 52 298 1.0 3.0 0.00 0.00 0.00 99 1006.4
20260508050947 53 332 2.0 3.0 0.00 0.00 0.00 98 1006.4
20260508050306 53 321 1.0 2.0 0.00 0.00 0.00 98 1006.4
20260508045626 53 20 1.0 3.0 0.00 0.00 0.00 97 1006.4
20260508044946 53 317 2.0 4.0 0.00 0.00 0.00 97 1006.4
20260508044306 53 309 3.0 4.0 0.00 0.00 0.00 96 1006.4
20260508043840 53 297 2.0 4.0 0.00 0.00 0.00 96 1006.4
20260508042946 53 321 3.0 4.0 0.00 0.00 0.00 96 1006.4
20260508042307 53 324 2.0 5.0 0.00 0.00 0.00 95 1006.4
20260508041626 53 274 1.0 4.0 0.00 0.00 0.00 95 1006.4
20260508040946 53 274 1.0 5.0 0.00 0.00 0.00 95 1006.4
20260508040306 53 280 1.0 5.0 0.00 0.00 0.00 95 1006.1
20260508035626 53 265 2.0 5.0 0.00 0.00 0.92 95 1006.1
20260508034946 53 313 4.0 8.0 0.00 0.00 0.92 94 1005.8
20260508034306 53 333 4.0 6.0 0.00 0.00 0.92 94 1005.8
20260508033626 53 331 4.0 6.0 0.00 0.00 0.92 94 1005.8
20260508032946 53 297 3.0 5.0 0.00 0.00 0.92 94 1005.8
20260508032307 53 324 2.0 6.0 0.00 0.00 0.92 96 1005.4
20260508031626 53 334 3.0 6.0 0.00 0.00 0.92 95 1005.4
20260508030946 53 317 4.0 5.0 0.00 0.00 0.92 95 1005.4
20260508030306 53 325 2.0 4.0 0.00 0.00 0.92 96 1005.4
20260508025840 53 321 3.0 4.0 0.00 0.00 0.92 95 1005.4
20260508024946 53 327 2.0 4.0 0.00 0.00 0.92 95 1005.4
20260508024516 53 18 1.0 4.0 0.00 0.00 0.92 95 1005.4
20260508023626 53 40 1.0 6.0 0.00 0.00 0.92 95 1005.1
20260508022946 53 331 4.0 6.0 0.00 0.00 0.92 94 1005.1
20260508022307 53 306 2.0 4.0 0.00 0.00 0.92 95 1005.1
20260508021626 53 351 1.0 3.0 0.00 0.00 0.92 97 1005.1
20260508021159 53 125 1.0 3.0 0.00 0.00 0.92 96 1005.1
20260508020520 53 35 2.0 6.0 0.00 0.00 0.92 96 1004.7
20260508015626 53 313 5.0 6.0 0.00 0.00 0.92 96 1005.1
20260508015156 53 286 2.0 5.0 0.00 0.00 0.92 96 1005.1
20260508014306 53 309 3.0 7.0 0.00 0.00 0.92 95 1004.7
20260508013626 53 10 3.0 8.0 0.00 0.00 0.92 96 1004.4
20260508013158 53 27 2.0 5.0 0.00 0.00 0.92 96 1004.1
20260508012307 53 7 2.0 5.0 0.00 0.00 0.92 96 1004.4
20260508011626 53 1 1.0 8.0 0.00 0.00 0.92 96 1004.4
20260508010946 53 331 5.0 8.0 0.00 0.00 0.92 95 1004.7
20260508010306 53 330 4.0 8.0 0.00 0.00 0.92 95 1004.1
20260508005626 54 46 4.0 7.0 0.00 0.00 0.92 93 1004.1
20260508004946 54 291 4.0 7.0 0.00 0.00 0.92 91 1004.7
20260508004306 54 341 3.0 6.0 0.00 0.00 0.92 87 1004.1
20260508003626 54 47 3.0 6.0 0.00 0.00 0.91 87 1003.7
20260508002946 54 31 3.0 6.0 0.00 0.00 0.91 86 1003.7
20260508002307 54 41 1.0 8.0 0.00 0.00 0.91 86 1003.7
20260508001627 55 12 3.0 10.0 0.00 0.00 0.91 86 1003.7
20260508000946 54 32 3.0 12.0 0.00 0.00 0.91 86 1003.4
20260508000306 54 43 3.0 9.0 0.00 0.00 0.91 87 1003.0
20260507235626 55 27 5.0 10.0 0.00 0.00 0.91 87 1003.4
20260507235157 55 1 4.0 11.0 0.00 0.00 0.91 87 1003.4
20260507234306 55 16 3.0 12.0 0.00 0.00 0.91 87 1003.0
20260507233626 55 13 5.0 12.0 0.00 0.00 0.91 86 1003.0
20260507232946 54 2 4.0 11.0 0.00 0.00 0.91 88 1003.0
20260507232307 54 342 5.0 11.0 0.00 0.00 0.91 88 1003.0
20260507231626 54 355 4.0 12.0 0.00 0.00 0.91 88 1003.0
20260507231156 54 26 4.0 10.0 0.00 0.00 0.91 88 1003.0
20260507230306 54 348 5.0 11.0 0.00 0.00 0.91 88 1003.0
20260507225626 54 3 6.0 12.0 0.00 0.00 0.91 89 1002.4
20260507224946 54 344 4.0 12.0 0.00 0.00 0.91 89 1002.7
20260507224306 54 36 5.0 12.0 0.00 0.00 0.91 88 1002.7
20260507223626 55 341 6.0 13.0 0.00 0.00 0.91 88 1002.7
20260507222946 55 357 3.0 12.0 0.00 0.00 0.91 88 1002.7
20260507222306 55 34 6.0 16.0 0.00 0.00 0.91 88 1002.7
20260507221626 55 339 5.0 18.0 0.00 0.00 0.91 88 1002.7
20260507220946 55 341 7.0 18.0 0.00 0.00 0.91 88 1002.4
20260507220306 55 1 5.0 19.0 0.00 0.00 0.91 89 1002.4
20260507215626 55 341 9.0 20.0 0.00 0.00 0.91 91 1002.4
20260507214947 56 330 10.0 20.0 0.00 0.00 0.91 90 1002.4
20260507214519 57 339 10.0 17.0 0.00 0.00 0.91 91 1002.0
20260507213626 58 358 6.0 13.0 0.00 0.00 0.91 92 1001.7
20260507212946 58 6 5.0 18.0 0.00 0.00 0.91 91 1001.7
20260507212307 58 355 9.0 18.0 0.00 0.00 0.91 89 1001.7
20260507211836 58 2 4.0 12.0 0.00 0.00 0.91 89 1001.7
20260507210946 59 359 6.0 15.0 0.00 0.00 0.91 89 1001.7
20260507210306 59 13 6.0 15.0 0.00 0.00 0.91 88 1001.4
20260507205626 59 19 5.0 13.0 0.00 0.00 0.91 89 1001.4
20260507204946 60 4 4.0 14.0 0.00 0.00 0.91 89 1001.4
20260507204306 60 356 6.0 16.0 0.00 0.00 0.91 90 1001.4
20260507203626 60 352 6.0 16.0 0.00 0.00 0.91 89 1001.0
20260507202946 60 350 5.0 15.0 0.00 0.00 0.91 91 1001.0
20260507202307 60 11 4.0 16.0 0.00 0.00 0.91 94 1001.0
20260507201626 61 332 9.0 16.0 0.00 0.00 0.91 92 1001.0
20260507200946 61 337 8.0 20.0 0.00 0.00 0.91 92 1001.0
20260507200310 61 317 10.0 16.0 0.00 0.00 0.91 95 1001.0
20260507195626 61 327 8.0 16.0 0.00 0.00 0.91 95 1001.0
20260507194947 62 330 7.0 19.0 0.00 0.00 0.91 94 1000.7
20260507194306 62 330 9.0 19.0 0.00 0.00 0.91 92 1000.7
20260507193626 62 323 11.0 19.0 0.00 0.00 0.91 92 1000.7
20260507192947 64 323 11.0 19.0 0.00 0.00 0.91 92 1000.7
20260507192306 65 326 10.0 15.0 0.00 0.00 0.91 89 1000.3
20260507191627 70 312 6.0 12.0 0.00 0.00 0.91 79 1000.0
20260507190947 73 203 5.0 11.0 0.00 0.00 0.91 82 999.7
20260507190306 72 199 6.0 12.0 0.00 0.00 0.91 87 1000.0
20260507185627 72 198 7.0 13.0 0.00 0.00 0.91 89 1000.3
20260507184946 71 196 9.0 13.0 0.00 0.00 0.91 90 1000.3
20260507184306 70 200 6.0 10.0 0.00 0.00 0.91 93 1000.7
20260507183626 71 289 3.0 9.0 0.00 0.00 0.91 93 1000.3
20260507182946 70 198 6.0 9.0 0.00 0.00 0.91 93 1000.7
20260507182307 70 208 4.0 13.0 0.00 0.00 0.91 92 1000.7
20260507181626 70 200 8.0 13.0 0.00 0.00 0.90 90 1000.7
20260507180947 70 201 5.0 10.0 0.00 0.00 0.90 92 1000.7
20260507180306 70 197 6.0 12.0 0.00 0.00 0.90 92 1000.7
20260507175626 71 197 7.0 12.0 0.00 0.00 0.90 89 1000.3
20260507174946 70 203 3.0 10.0 0.00 0.00 0.90 94 1000.0
20260507174306 70 84 2.0 8.0 0.00 0.00 0.90 95 1000.3
20260507173837 69 131 2.0 6.0 0.00 0.00 0.89 96 1000.3
20260507172946 69 137 1.0 6.0 0.00 0.00 0.89 96 1000.7
20260507172308 69 172 4.0 6.0 0.00 0.00 0.89 94 1000.7
20260507171626 69 202 3.0 6.0 0.00 0.00 0.89 95 1000.7
20260507170946 69 190 3.0 8.0 0.00 0.00 0.88 95 1001.0
20260507170306 69 204 4.0 8.0 0.00 0.00 0.88 96 1001.4
20260507165626 68 188 5.0 8.0 0.00 0.00 0.87 96 1001.7
20260507164946 68 209 4.0 12.0 0.00 0.00 0.87 96 1001.7
20260507164306 69 200 7.0 12.0 0.00 0.00 0.87 96 1001.7
20260507163626 68 194 4.0 8.0 0.00 0.00 0.87 96 1001.7
20260507162946 69 219 3.0 7.0 0.00 0.00 0.87 96 1002.0
20260507162307 69 193 4.0 6.0 0.00 0.00 0.87 96 1002.0
20260507161626 69 196 3.0 8.0 0.00 0.00 0.87 96 1001.7
20260507160946 69 146 3.0 8.0 0.00 0.00 0.87 96 1001.7
20260507160306 69 128 3.0 7.0 0.00 0.00 0.86 97 1002.0
20260507155627 69 164 2.0 5.0 0.00 0.00 0.86 98 1002.0
20260507154946 69 137 2.0 4.0 0.00 0.00 0.86 97 1001.7
20260507154306 68 117 3.0 4.0 0.00 0.00 0.86 97 1001.7
20260507153838 68 198 1.0 5.0 0.00 0.00 0.85 98 1002.4
20260507152946 68 197 3.0 5.0 0.00 0.00 0.83 99 1002.4
20260507152307 68 262 2.0 5.0 0.00 0.00 0.81 99 1002.4
20260507151626 68 204 3.0 5.0 0.00 0.00 0.79 99 1002.7
20260507150946 68 203 4.0 7.0 0.00 0.00 0.78 98 1002.7
20260507150306 68 216 4.0 7.0 0.00 0.00 0.77 98 1002.7
20260507145837 68 213 3.0 12.0 0.00 0.00 0.75 98 1002.7
20260507144946 68 201 7.0 12.0 0.00 0.00 0.72 97 1002.7
20260507144306 68 219 7.0 12.0 0.00 0.00 0.69 95 1002.7
20260507143626 68 199 4.0 12.0 0.00 0.00 0.64 96 1002.7
20260507142947 68 206 3.0 12.0 0.00 0.00 0.61 95 1002.7
20260507142307 69 200 5.0 9.0 0.00 0.00 0.60 95 1002.7
20260507141841 69 200 4.0 14.0 0.00 0.00 0.60 94 1002.4
20260507140947 69 203 5.0 15.0 0.00 0.00 0.60 93 1002.4
20260507140306 69 211 5.0 11.0 0.00 0.00 0.60 94 1002.4
20260507135626 69 219 2.0 9.0 0.00 0.00 0.60 94 1002.4
20260507135158 69 217 2.0 15.0 0.00 0.00 0.59 95 1002.7
20260507134307 69 199 10.0 15.0 0.00 0.00 0.59 92 1002.7
20260507133626 69 201 5.0 13.0 0.00 0.00 0.59 94 1002.4
20260507132946 69 197 6.0 13.0 0.00 0.00 0.59 93 1002.4
20260507132307 69 193 4.0 9.0 0.00 0.00 0.59 93 1002.4
20260507131836 69 194 4.0 10.0 0.00 0.00 0.59 94 1002.4
20260507130946 69 189 6.0 10.0 0.00 0.00 0.59 94 1002.4
20260507130307 68 180 3.0 10.0 0.00 0.00 0.59 95 1002.4
20260507125626 68 180 5.0 9.0 0.00 0.00 0.59 95 1002.4
20260507124946 68 195 4.0 9.0 0.00 0.00 0.59 95 1002.4
20260507124306 68 199 6.0 12.0 0.00 0.00 0.59 96 1002.7
20260507123626 68 193 7.0 14.0 0.00 0.00 0.59 95 1002.7
20260507123156 68 200 8.0 14.0 0.00 0.00 0.59 95 1003.0
20260507122307 68 195 5.0 10.0 0.00 0.00 0.59 95 1003.0
20260507121626 68 197 4.0 11.0 0.00 0.00 0.59 95 1003.0
20260507120946 68 177 4.0 12.0 0.00 0.00 0.59 95 1003.0
20260507120307 68 199 4.0 10.0 0.00 0.00 0.59 97 1003.4
20260507115626 68 154 3.0 9.0 0.00 0.00 0.59 98 1003.4
20260507114946 68 173 3.0 8.0 0.00 0.00 0.59 98 1003.4
20260507114306 68 192 4.0 9.0 0.00 0.00 0.59 97 1003.4
20260507113626 67 194 4.0 9.0 0.00 0.00 0.59 98 1003.4
20260507112946 67 196 6.0 9.0 0.00 0.00 0.59 99 1003.4
20260507112307 67 196 4.0 7.0 0.00 0.00 0.59 99 1003.7
20260507111838 67 201 4.0 8.0 0.00 0.00 0.59 99 1003.4
20260507110946 67 195 4.0 11.0 0.00 0.00 0.59 99 1003.4
20260507110306 67 198 4.0 12.0 0.00 0.00 0.59 99 1003.4
20260507105840 67 193 6.0 9.0 0.00 0.00 0.58 99 1003.4
20260507104946 67 195 2.0 7.0 0.00 0.00 0.58 99 1003.4
20260507104306 66 186 2.0 7.0 0.00 0.00 0.57 99 1003.4
20260507103836 66 214 4.0 7.0 0.00 0.00 0.56 100 1003.4
20260507102946 66 192 2.0 4.0 0.00 0.00 0.55 100 1003.4
20260507102518 66 178 2.0 4.0 0.00 0.00 0.54 100 1003.0
20260507101626 66 191 3.0 5.0 0.00 0.00 0.53 100 1003.0
20260507100946 66 207 3.0 6.0 0.00 0.00 0.53 100 1003.0
20260507100306 66 195 4.0 5.0 0.00 0.00 0.52 99 1003.0
20260507095626 66 154 3.0 6.0 0.00 0.00 0.51 100 1003.0
20260507094946 66 139 2.0 6.0 0.00 0.00 0.50 99 1003.0
20260507094306 66 197 3.0 6.0 0.00 0.00 0.50 99 1003.0
20260507093837 67 203 3.0 8.0 0.00 0.00 0.49 99 1003.0
20260507092946 67 190 5.0 8.0 0.00 0.00 0.48 99 1003.4
20260507092518 67 211 3.0 10.0 0.00 0.00 0.47 99 1003.0
20260507091626 66 151 4.0 10.0 0.00 0.00 0.47 99 1003.0
20260507090946 67 194 6.0 10.0 0.00 0.00 0.46 99 1003.4
20260507090306 67 203 6.0 17.0 0.00 0.00 0.41 99 1003.4
20260507085626 67 143 5.0 18.0 0.00 0.00 0.36 98 1003.4
20260507084946 66 202 7.0 14.0 0.00 0.00 0.30 99 1004.1
20260507084306 66 190 4.0 9.0 0.00 0.00 0.26 98 1004.1
20260507083626 66 180 4.0 9.0 0.00 0.00 0.23 98 1003.7
20260507082946 66 202 5.0 9.0 0.00 0.00 0.22 98 1003.7
20260507082307 66 153 3.0 8.0 0.00 0.00 0.21 98 1003.4
20260507081626 66 158 3.0 8.0 0.00 0.00 0.21 98 1003.7
20260507080946 66 104 1.0 7.0 0.00 0.00 0.21 98 1003.7
20260507080516 66 169 3.0 7.0 0.00 0.00 0.21 98 1003.7
20260507075627 66 118 2.0 6.0 0.00 0.00 0.21 99 1003.7
20260507074946 66 148 3.0 6.0 0.00 0.00 0.21 99 1003.7
20260507074306 66 127 1.0 4.0 0.00 0.00 0.20 99 1004.1
20260507073626 66 124 1.0 3.0 0.00 0.00 0.20 99 1004.1
20260507072946 66 118 2.0 4.0 0.00 0.00 0.20 98 1004.1
20260507072307 66 119 2.0 4.0 0.00 0.00 0.20 98 1004.1
20260507071835 66 154 2.0 4.0 0.00 0.00 0.20 99 1004.1
20260507070946 66 133 2.0 3.0 0.00 0.00 0.20 99 1004.1
20260507070306 66 132 1.0 3.0 0.00 0.00 0.20 99 1004.4
20260507065626 66 156 1.0 3.0 0.00 0.00 0.20 99 1004.4
20260507065158 66 72 1.0 3.0 0.00 0.00 0.20 100 1004.1
20260507064518 66 157 1.0 2.0 0.00 0.00 0.20 100 1004.4
20260507063626 66 76 1.0 3.0 0.00 0.00 0.20 99 1004.1
20260507062947 66 78 2.0 3.0 0.00 0.00 0.20 99 1004.4
20260507062306 66 162 1.0 4.0 0.00 0.00 0.20 99 1004.7
20260507061626 66 200 2.0 5.0 0.00 0.00 0.20 99 1005.1
20260507060946 66 117 3.0 5.0 0.00 0.00 0.20 98 1004.4
20260507060306 66 169 2.0 4.0 0.00 0.00 0.20 99 1004.7
20260507055838 66 115 2.0 6.0 0.00 0.00 0.20 98 1004.7
20260507054946 66 90 3.0 8.0 0.00 0.00 0.20 98 1004.1